Regional Weather Roundup
Issued by NWS Grand Forks, ND

Home | Current Version | Previous Version | Text Only | Print | Product List | Glossary Off
Versions: 1 2 3 4 5 6 7 8 9 10 11 12 13 14 15 16 17 18 19 20 21 22 23 24 25 26 27 28 29 30 31 32 33 34 35 36 37 38 39 40 41 42 43 44 45 46 47 48 49 50

000
ASUS43 KFGF 182331
RWRFGF
PRAIRIE TO PINES  WEATHER ROUNDUP
NATIONAL WEATHER SERVICE EASTERN NORTH DAKOTA/GRAND FORKS ND
500 PM CST SUN FEB 18 2018

 **SATELLITE DATA USED TO AUGMENT SKY COVER AT AUTOMATED STATIONS**
 *****  WEATHER ACROSS EASTERN NORTH DAKOTA  *****

CITY           SKY/WX    TMP DP  RH WIND       PRES   REMARKS
GRAND FORKS    CLOUDY    13   8  81 N18       29.92R BLWGSNOWWCI  -4
GRAND FRKS AFB CLOUDY    10   5  79 N17       29.94R WCI  -7
DEVILS LAKE    FAIR       9   1  70 N13       29.95R WCI  -7
FARGO          MIX PCPN  14  10  84 N25       29.85R FOG     WCI  -5
WAHPETON ARPT  FAIR      19  14  79 N22G29    29.78R WCI   3
$$

 ***** WEATHER ACROSS CENTRAL AND WESTERN NORTH DAKOTA  *****

CITY           SKY/WX    TMP DP  RH WIND       PRES   REMARKS
BISMARCK       FLURRIES  11   4  73 N15       29.97R WCI  -5
MINOT          PTSUNNY    9   0  67 N12       29.98R WCI  -6
JAMESTOWN      FLURRIES  11   5  77 N20G31    29.86R WCI  -7
MINOT AFB      CLOUDY     9   1  72 N12       30.00R WCI  -6
GARRISON         N/A      8  -1  66 N9        29.95R WCI  -5
WILLISTON      FAIR       8  -1  66 N10       30.01R WCI  -6
DICKINSON      CLOUDY     7   0  73 N15       29.87S WCI -10
HETTINGER      CLOUDY     7   0  73 N21       29.86R WCI -13
$$

 *****  OTHER AIRPORT OBSERVATIONS IN OUR AREA  *****

CITY           SKY/WX    TMP DP  RH WIND       PRES   REMARKS
WALHALLA       FAIR      10   1  67 N17       30.00R WCI  -7
GRAFTON AIRPOR NOT AVBL
VALLEY CITY AR NOT AVBL
CANDO          FAIR       9   0  66 N9        29.99R WCI  -5
CAVALIER APRT    N/A     10   3  72 N12G18    29.99R WCI  -4
GWINNER          N/A     14  10  85 N28       29.81R FOG     WCI  -6
SHEYENNE NWR     N/A     15  12  88 N14       29.95S WCI   0
ROLLA          FLURRIES   7  -2  66 N16       29.94R WCI -11
 ***** THE ABOVE OBSERVATIONS ARE NON NWS ARE NOT QUALITY
       CONTROLLED AND MAY MIS-REPORT RAIN FOR SNOW...
$$

  *****  WEATHER ACROSS NORTHERN MINNESOTA  *****

CITY           SKY/WX    TMP DP  RH WIND       PRES   REMARKS
FLAG ISLAND    FAIR       9   1  72 N10       29.92S WCI  -6
WARROAD        FAIR      10   3  72 N13       29.93R WCI  -5
ROSEAU         NOT AVBL
HALLOCK        FAIR      12   1  62 N12       29.96R WCI  -2
THF RVR FALLS  FAIR      10   3  72 NE18      29.89R WCI  -8
BAUDETTE       FAIR      10   4  76 N10       29.87R WCI  -4
WASKISH        CLOUDY    12   7  79 NE9       29.83R WCI   0
CROOKSTON      FAIR      12   7  79 N16       29.91R WCI  -4
$$
  *****  WEATHER ACROSS CENTRAL AND WEST MINNESOTA  *****

CITY           SKY/WX    TMP DP  RH WIND       PRES   REMARKS
FOSSTON        FAIR      10   5  79 N15       29.82R WCI  -6
BEMIDJI        FLURRIES  15  10  83 N12       29.77R WCI   1
PARK RAPIDS    CLOUDY    19  13  77 NE10G18   29.70R WCI   7
ELBOW LAKE     FAIR      22  15  75 E15       29.70R WCI   8
WADENA         FAIR      18  12  79 N14       29.69S WCI   4
DETROIT LAKES  MOCLDY    21  14  73 NE10      29.75R WCI  10
MOORHEAD       CLOUDY    16  10  79 N24G32    29.83R WCI  -3
FERGUS FALLS   FAIR      21  14  73 N12       29.73R WCI   9
MORRIS MN      MOCLDY    27  16  63 N20       29.67R WCI  13
STAPLES        FAIR      19  12  73 N8        29.69R WCI   9
$$
  *****  WEATHER ELSEWHERE ACROSS MINNESOTA  *****

CITY           SKY/WX    TMP DP  RH WIND       PRES   REMARKS
DULUTH         LGT SNOW  23  19  85 E10       29.67S VSB 3/4 WCI  12
INTRNTL FALLS  CLOUDY    11   6  81 NE10G20   29.85R WCI  -3
ELY            LGT SNOW  12   9  85 NE8       29.75S WCI   1
CLOQUET        LGT SNOW  21  19  93 N3        29.69R
WHEATON        CLOUDY    25  16  68 N18G24    29.75R WCI  11
BRAINERD       LGT SNOW  21  14  74 N15       29.69R WCI   8
HIBBING        LGT SNOW  17  13  84 N9        29.72R FOG     WCI   6
ALEXANDRIA     CLOUDY    22  16  78 N15       29.65R WCI   9
SAINT CLOUD    FAIR      39  31  72 S10       29.58R
MINNEAPOLIS    CLOUDY    44  30  57 S10       29.62S
$$

  *****  WEATHER ACROSS SOUTH DAKOTA  *****

CITY           SKY/WX    TMP DP  RH WIND       PRES   REMARKS
SIOUX FALLS    MOCLDY    39  31  72 NW15      29.57R
BROOKINGS      FAIR      33  24  69 N16G24    29.59R WCI  23
WATERTOWN      MOCLDY    22  18  85 N23       29.66R WCI   6
HURON          CLOUDY    25  19  78 N28G33    29.70R WCI   9
SISSETON         N/A     22  16  78 N25       29.73R WCI   5
ABERDEEN       CLOUDY    19  12  74 N23G33    29.78R WCI   2
MITCHELL       FAIR      30  24  78 NW22      29.67R WCI  17
PIERRE         LGT SNOW  18  15  88 N22G30    29.79R FOG     WCI   1
MOBRIDGE       LGT SNOW  16   9  74 N22G29    29.80R WCI  -2
RAPID CITY     LGT SNOW   8   4  83 N24G32    29.77R VSB 1   WCI -13
$$

  *****  SOME WEATHER IN NEARBY STATES *****

CITY           SKY/WX    TMP DP  RH WIND       PRES   REMARKS
GLASGOW MT     FAIR       4  -2  76 NW5       30.04R WCI  -5
GREAT FALLS MT LGT SNOW   2  -4  76 NE13      29.96R WCI -15
CHEYENNE WY    FAIR      57  11  16 W21G36    29.44R
SCOTTSBLUFF NE PTSUNNY   27  22  81 NE20G31   29.58R WCI  13
OMAHA NE       FAIR      55  34  45 S17       29.59R
DES MOINES IA  MOCLDY    51  28  41 S13G23    29.66R
DAVENPORT IA   FAIR      43  30  60 SE20G31   29.86F
CHICAGO IL     CLOUDY    37  27  67 S15       30.02F
EAU CLAIRE WI  FAIR      38  26  62 S12       29.69S
LA CROSSE WI   FAIR      41  26  55 S15       29.74R
$$

  *****  SOME NATIONAL WEATHER *****

CITY           SKY/WX    TMP DP  RH WIND       PRES   REMARKS
LA GUARDIA NY  MOCLDY    43  24  47 NW10      30.43R
RALEIGH NC     FAIR      56  36  47 SE6       30.36R
ATLANTA GA     LGT RAIN  60  58  92 SE7       30.24R
NEW ORLEANS LA PTSUNNY   77  66  68 S10       30.13R
OKLAHOMA CITY  CLOUDY    53  50  89 S22       29.78F
ALBUQUERQUE NM PTSUNNY   62  35  36 SW10      29.78F
SALT LAKE CITY LGT RAIN  40  32  73 N14       29.55R
LOS ANGELES CA FAIR      62  51  67 W14       29.91F
BOISE ID       FAIR      39  17  41 NW9       29.59F
SEATTLE WA     FAIR      35  25  66 N30G41    29.75R WCI  22
$$

*** WEATHER ACROSS MANITOBA...SASKATCHEWAN AND ONTARIO ***
                ***ONTARIO***

CITY           SKY/WX    TMP DP  RH WIND       PRES   REMARKS
GERALDTON      LGT SNOW   5   1  85 N3        29.99R VSB 1
THUNDER BAY    SNOW      10   9  92 N5        29.91R VSB 1/2 WCI   2
SIOUX LOOKOUT  LGT SNOW   5   0  78 NE3       29.94R
TORONTO        MOCLDY    34  19  55 SW8       30.33S
BIG TROUT LK   CLEAR    -15 -27  53 NW5       30.08R WCI -27
PICKLE LAKE    MOCLDY     3  -6  66 N3        29.95S
DRYDEN         FLURRIES   5   1  85 NE8       29.91R WCI  -8
KENORA         MOCLDY     7  -2  66 NE7       29.91R WCI  -5
$$
                *** MANITOBA***

CITY           SKY/WX    TMP DP  RH WIND       PRES   REMARKS
BRANDON        PTCLDY     7   1  78 E7        30.01R WCI  -5
DAUPHIN        CLEAR      3  -6  66 NE6       30.07R WCI  -8
ISLAND LAKE    CLEAR    -15 -29  48 NW3       30.11R
PILOT MOUND      N/A      9   0  66 N12         N/A  WCI  -6
THE PAS        PTCLDY    -9 -22  54 SE5       30.13R WCI -21
THOMPSON       CLEAR    -20 -36  43 W8        30.16R WCI -39
WINNIPEG       PTCLDY     7  -6  56 N12G18    30.04R WCI  -9
LYNN LAKE      CLEAR    -22 -38  42 W8        30.10R WCI -41
CHURCHILL      PTCLDY   -31 -42  56 W12       30.10R WCI -56
GILLAM         CLEAR    -24 -38  47 W10G17    30.13  WCI -46
$$
                ***SASKATCHEWAN***

CITY           SKY/WX    TMP DP  RH WIND       PRES   REMARKS
ESTEVAN        MOSUNNY    7  -8  51 N8        30.01R WCI  -6
KINDERSLEY     MOSUNNY    5  -6  61 NW8       30.05R WCI  -8
LLOYDMINSTER   MOSUNNY    3  -9  55 NW13G20   30.02R WCI -14
PRINCE ALBERT  PTCLDY     3  -9  55 NW13      30.07R WCI -14
REGINA         CLOUDY     7   0  72 SW7       30.02R WCI  -5
YORKTON        CLEAR      3 -11  51 CALM      30.04R
N. BATTLEFORD  SUNNY      3  -8  60 NW7       30.07R WCI  -9
LA RONGE       PTCLDY    -6 -18  54 NW7       30.12R WCI -20
SASKATOON      MOSUNNY    5  -8  56 NW13      30.07R WCI -12
SWIFT CURRENT  LGT SNOW   3  -4  72 NW14      29.99R WCI -15
$$
NOTE: THESE ARE AUTOMATED STATIONS WITH LIMITED QUALITY CONTROL
      "FAIR" INDICATES FEW OR NO CLOUDS BELOW 12,000 FEET WITH NO
      SIGNIFICANT WEATHER AND/OR OBSTRUCTIONS TO VISIBILITY.
      SKY/WX - SKY CONDITION AND SIGNIFICANT WEATHER.
      TMP - AIR TEMPERATURE.    DP   - DEWPOINT TEMPERATURE.
      RH  - RELATIVE HUMIDITY.  PRES - PRESSURE.
      HX  - HEAT INDEX.         WCI  - WIND CHILL INDEX.
$



USA.gov is the U.S. government's official web portal to all federal, state and local government web resources and services.